Time,TemperatureF,DewpointF,PressureIn,WindDirection,WindDirectionDegrees,WindSpeedMPH,WindSpeedGustMPH,Humidity,HourlyPrecipIn,Conditions,Clouds,dailyrainin,SoftwareType,DateUTC
2013-01-25 00:00:00,11.7,0.5,0.00,WSW,257,9.2,9.2,60,0.00,CLR,CLR,0.00,WeatherDisplay:10.37,2013-01-25 05:00:00,
2013-01-25 00:02:00,11.7,0.5,0.00,NW,306,12.7,12.7,60,0.00,CLR,CLR,0.00,WeatherDisplay:10.37,2013-01-25 05:02:00,
2013-01-25 00:03:00,11.7,0.5,0.00,NW,304,12.7,12.7,60,0.00,CLR,CLR,0.00,WeatherDisplay:10.37,2013-01-25 05:03:00,
2013-01-25 00:09:00,11.6,0.0,0.00,WNW,291,9.2,9.3,59,0.00,CLR,CLR,0.00,WeatherDisplay:10.37,2013-01-25 05:09:00,
2013-01-25 00:14:00,11.5,0.3,0.00,WSW,256,15.0,15.0,60,0.00,CLR,CLR,0.00,WeatherDisplay:10.37,2013-01-25 05:14:00,
2013-01-25 00:19:00,11.4,0.2,0.00,WSW,243,12.7,12.7,60,0.00,CLR,CLR,0.00,WeatherDisplay:10.37,2013-01-25 05:19:00,
2013-01-25 00:24:00,11.4,0.2,0.00,SW,223,15.0,15.0,60,0.00,CLR,CLR,0.00,WeatherDisplay:10.37,2013-01-25 05:24:00,
2013-01-25 00:30:00,11.4,0.2,0.00,West,281,9.2,9.2,60,0.00,CLR,CLR,0.00,WeatherDisplay:10.37,2013-01-25 05:30:00,
2013-01-25 00:35:00,11.3,0.1,0.00,West,278,12.7,12.7,60,0.00,CLR,CLR,0.00,WeatherDisplay:10.37,2013-01-25 05:35:00,
2013-01-25 00:40:00,11.3,0.1,0.00,West,260,10.1,10.1,60,0.00,CLR,CLR,0.00,WeatherDisplay:10.37,2013-01-25 05:40:00,
2013-01-25 00:45:00,11.3,0.1,0.00,SW,232,15.0,15.0,60,0.00,CLR,CLR,0.00,WeatherDisplay:10.37,2013-01-25 05:45:00,
2013-01-25 00:50:00,11.2,0.0,0.00,NNW,329,4.6,4.6,60,0.00,CLR,CLR,0.00,WeatherDisplay:10.37,2013-01-25 05:50:00,
2013-01-25 00:56:00,11.2,0.0,0.00,WSW,241,13.8,13.8,60,0.00,CLR,CLR,0.00,WeatherDisplay:10.37,2013-01-25 05:56:00,
2013-01-25 01:01:00,11.1,-0.1,0.00,WSW,244,11.5,11.5,60,0.00,CLR,CLR,0.00,WeatherDisplay:10.37,2013-01-25 06:01:00,
2013-01-25 01:06:00,11.1,-0.1,0.00,West,277,10.4,10.4,60,0.00,CLR,CLR,0.00,WeatherDisplay:10.37,2013-01-25 06:06:00,
2013-01-25 01:11:00,11.0,-0.2,0.00,WSW,248,9.6,9.6,60,0.00,CLR,CLR,0.00,WeatherDisplay:10.37,2013-01-25 06:11:00,
2013-01-25 01:16:00,11.0,-0.2,0.00,WNW,288,13.8,13.8,60,0.00,CLR,CLR,0.00,WeatherDisplay:10.37,2013-01-25 06:16:00,
2013-01-25 01:22:00,10.9,0.1,0.00,West,260,12.7,12.7,61,0.00,CLR,CLR,0.00,WeatherDisplay:10.37,2013-01-25 06:22:00,
2013-01-25 01:27:00,10.8,0.0,0.00,West,268,8.1,8.1,61,0.00,CLR,CLR,0.00,WeatherDisplay:10.37,2013-01-25 06:27:00,
2013-01-25 01:32:00,10.9,0.1,0.00,WSW,250,9.6,9.6,61,0.00,CLR,CLR,0.00,WeatherDisplay:10.37,2013-01-25 06:32:00,
2013-01-25 01:37:00,10.8,0.0,0.00,West,270,17.3,17.3,61,0.00,CLR,CLR,0.00,WeatherDisplay:10.37,2013-01-25 06:37:00,
2013-01-25 01:43:00,10.7,-0.1,0.00,WSW,256,8.9,8.9,61,0.00,CLR,CLR,0.00,WeatherDisplay:10.37,2013-01-25 06:43:00,
2013-01-25 01:48:00,10.7,-0.1,0.00,WSW,248,4.1,4.1,61,0.00,CLR,CLR,0.00,WeatherDisplay:10.37,2013-01-25 06:48:00,
2013-01-25 01:53:00,10.7,-0.1,0.00,WSW,244,10.4,10.4,61,0.00,CLR,CLR,0.00,WeatherDisplay:10.37,2013-01-25 06:53:00,
2013-01-25 01:59:00,10.7,-0.1,0.00,West,265,5.8,5.8,61,0.00,CLR,CLR,0.00,WeatherDisplay:10.37,2013-01-25 06:59:00,
2013-01-25 02:04:00,10.6,0.1,0.00,WSW,246,9.2,9.2,62,0.00,CLR,CLR,0.00,WeatherDisplay:10.37,2013-01-25 07:04:00,
2013-01-25 02:09:00,10.7,-0.1,0.00,WSW,254,6.9,6.9,61,0.00,CLR,CLR,0.00,WeatherDisplay:10.37,2013-01-25 07:09:00,
2013-01-25 02:14:00,10.6,0.1,0.00,WSW,250,7.3,7.3,62,0.00,CLR,CLR,0.00,WeatherDisplay:10.37,2013-01-25 07:14:00,
2013-01-25 02:19:00,10.6,0.1,0.00,WNW,291,10.4,10.4,62,0.00,CLR,CLR,0.00,WeatherDisplay:10.37,2013-01-25 07:19:00,
2013-01-25 02:25:00,10.5,0.0,0.00,WSW,237,4.6,4.6,62,0.00,CLR,CLR,0.00,WeatherDisplay:10.37,2013-01-25 07:25:00,
2013-01-25 02:30:00,10.5,0.0,0.00,NW,305,8.1,8.1,62,0.00,CLR,CLR,0.00,WeatherDisplay:10.37,2013-01-25 07:30:00,
2013-01-25 02:35:00,10.4,-0.1,0.00,West,263,4.6,4.6,62,0.00,CLR,CLR,0.00,WeatherDisplay:10.37,2013-01-25 07:35:00,
2013-01-25 02:40:00,10.4,-0.1,0.00,WNW,296,8.1,8.1,62,0.00,CLR,CLR,0.00,WeatherDisplay:10.37,2013-01-25 07:40:00,
2013-01-25 02:46:00,10.4,-0.1,0.00,WSW,239,6.9,6.9,62,0.00,CLR,CLR,0.00,WeatherDisplay:10.37,2013-01-25 07:46:00,
2013-01-25 02:51:00,10.4,-0.1,0.00,WNW,288,10.4,10.4,62,0.00,CLR,CLR,0.00,WeatherDisplay:10.37,2013-01-25 07:51:00,
2013-01-25 02:56:00,10.4,-0.1,0.00,West,264,7.8,7.8,62,0.00,CLR,CLR,0.00,WeatherDisplay:10.37,2013-01-25 07:56:00,
2013-01-25 03:01:00,10.3,-0.2,0.00,WNW,295,5.8,5.8,62,0.00,CLR,CLR,0.00,WeatherDisplay:10.37,2013-01-25 08:01:00,
2013-01-25 03:07:00,10.3,-0.2,0.00,West,270,8.1,8.1,62,0.00,CLR,CLR,0.00,WeatherDisplay:10.37,2013-01-25 08:07:00,
2013-01-25 03:12:00,10.3,-0.2,0.00,WSW,254,5.8,5.8,62,0.00,CLR,CLR,0.00,WeatherDisplay:10.37,2013-01-25 08:12:00,
2013-01-25 03:17:00,10.2,0.1,0.00,WSW,240,4.6,4.6,63,0.00,CLR,CLR,0.00,WeatherDisplay:10.37,2013-01-25 08:17:00,
2013-01-25 03:23:00,10.3,0.2,0.00,WNW,301,6.9,6.9,63,0.00,CLR,CLR,0.00,WeatherDisplay:10.37,2013-01-25 08:23:00,
2013-01-25 03:28:00,10.2,0.1,0.00,WSW,258,5.8,5.8,63,0.00,CLR,CLR,0.00,WeatherDisplay:10.37,2013-01-25 08:28:00,
2013-01-25 03:33:00,10.2,0.1,0.00,WSW,250,6.5,6.5,63,0.00,CLR,CLR,0.00,WeatherDisplay:10.37,2013-01-25 08:33:00,
2013-01-25 03:38:00,10.1,0.0,0.00,WSW,246,6.7,6.7,63,0.00,CLR,CLR,0.00,WeatherDisplay:10.37,2013-01-25 08:38:00,
2013-01-25 03:44:00,10.1,0.0,0.00,WSW,258,6.9,6.9,63,0.00,CLR,CLR,0.00,WeatherDisplay:10.37,2013-01-25 08:44:00,
2013-01-25 03:49:00,10.1,0.0,0.00,West,280,4.6,4.6,63,0.00,CLR,CLR,0.00,WeatherDisplay:10.37,2013-01-25 08:49:00,
2013-01-25 03:54:00,10.0,-0.1,0.00,South,181,4.6,4.6,63,0.00,CLR,CLR,0.00,WeatherDisplay:10.37,2013-01-25 08:54:00,
2013-01-25 03:59:00,10.1,0.3,0.00,West,260,3.8,3.8,64,0.00,CLR,CLR,0.00,WeatherDisplay:10.37,2013-01-25 08:59:00,
2013-01-25 04:04:00,10.0,0.2,0.00,West,260,2.3,2.3,64,0.00,CLR,CLR,0.00,WeatherDisplay:10.37,2013-01-25 09:04:00,
2013-01-25 04:10:00,10.0,0.6,0.00,SW,232,3.5,3.5,65,0.00,CLR,CLR,0.00,WeatherDisplay:10.37,2013-01-25 09:10:00,
2013-01-25 04:15:00,10.0,0.6,0.00,WNW,284,4.8,4.8,65,0.00,CLR,CLR,0.00,WeatherDisplay:10.37,2013-01-25 09:15:00,
2013-01-25 04:20:00,9.9,0.5,0.00,SW,219,3.0,3.0,65,0.00,CLR,CLR,0.00,WeatherDisplay:10.37,2013-01-25 09:20:00,
2013-01-25 04:26:00,9.9,0.5,0.00,NW,309,1.2,1.2,65,0.00,CLR,CLR,0.00,WeatherDisplay:10.37,2013-01-25 09:26:00,
2013-01-25 04:31:00,9.9,0.5,0.00,WSW,253,4.6,4.6,65,0.00,CLR,CLR,0.00,WeatherDisplay:10.37,2013-01-25 09:31:00,
2013-01-25 04:36:00,9.8,0.4,0.00,WSW,253,7.3,7.3,65,0.00,CLR,CLR,0.00,WeatherDisplay:10.37,2013-01-25 09:36:00,
2013-01-25 04:41:00,9.7,0.3,0.00,WSW,257,8.1,8.1,65,0.00,CLR,CLR,0.00,WeatherDisplay:10.37,2013-01-25 09:41:00,
2013-01-25 04:46:00,9.7,0.3,0.00,WSW,253,6.9,6.9,65,0.00,CLR,CLR,0.00,WeatherDisplay:10.37,2013-01-25 09:46:00,
2013-01-25 04:51:00,9.6,0.2,0.00,SE,145,6.9,6.9,65,0.00,CLR,CLR,0.00,WeatherDisplay:10.37,2013-01-25 09:51:00,
2013-01-25 04:56:00,9.6,0.5,0.00,West,271,10.4,10.4,66,0.00,CLR,CLR,0.00,WeatherDisplay:10.37,2013-01-25 09:56:00,
2013-01-25 05:01:00,9.5,0.4,0.00,WSW,248,7.9,7.9,66,0.00,CLR,CLR,0.00,WeatherDisplay:10.37,2013-01-25 10:01:00,
2013-01-25 05:07:00,9.5,0.4,0.00,West,267,5.8,5.8,66,0.00,CLR,CLR,0.00,WeatherDisplay:10.37,2013-01-25 10:07:00,
2013-01-25 05:12:00,9.5,0.4,0.00,WSW,246,8.1,8.1,66,0.00,CLR,CLR,0.00,WeatherDisplay:10.37,2013-01-25 10:12:00,
2013-01-25 05:17:00,9.4,0.3,0.00,WSW,258,9.2,9.2,66,0.00,CLR,CLR,0.00,WeatherDisplay:10.37,2013-01-25 10:17:00,
2013-01-25 05:22:00,9.4,0.3,0.00,West,265,6.9,6.9,66,0.00,CLR,CLR,0.00,WeatherDisplay:10.37,2013-01-25 10:22:00,
2013-01-25 05:27:00,9.4,0.3,0.00,West,263,10.4,10.4,66,0.00,CLR,CLR,0.00,WeatherDisplay:10.37,2013-01-25 10:27:00,
2013-01-25 05:32:00,9.3,0.2,0.00,WSW,258,10.4,10.4,66,0.00,CLR,CLR,0.00,WeatherDisplay:10.37,2013-01-25 10:32:00,
2013-01-25 05:37:00,9.3,0.2,0.00,NW,319,9.2,9.2,66,0.00,CLR,CLR,0.00,WeatherDisplay:10.37,2013-01-25 10:37:00,
2013-01-25 05:43:00,9.3,0.2,0.00,West,268,6.9,6.9,66,0.00,CLR,CLR,0.00,WeatherDisplay:10.37,2013-01-25 10:43:00,
2013-01-25 05:48:00,9.3,0.2,0.00,West,271,6.9,6.9,66,0.00,CLR,CLR,0.00,WeatherDisplay:10.37,2013-01-25 10:48:00,
2013-01-25 05:53:00,9.4,0.3,0.00,SSW,196,8.1,8.1,66,0.00,CLR,CLR,0.00,WeatherDisplay:10.37,2013-01-25 10:53:00,
2013-01-25 05:58:00,9.3,0.2,0.00,West,268,8.1,8.1,66,0.00,CLR,CLR,0.00,WeatherDisplay:10.37,2013-01-25 10:58:00,
2013-01-25 06:03:00,9.3,0.2,0.00,WNW,284,7.0,7.0,66,0.00,CLR,CLR,0.00,WeatherDisplay:10.37,2013-01-25 11:03:00,
2013-01-25 06:08:00,9.3,0.2,0.00,WSW,256,5.8,5.8,66,0.00,CLR,CLR,0.00,WeatherDisplay:10.37,2013-01-25 11:08:00,
2013-01-25 06:13:00,9.3,0.2,0.00,West,265,3.7,3.7,66,0.00,CLR,CLR,0.00,WeatherDisplay:10.37,2013-01-25 11:13:00,
2013-01-25 06:18:00,9.3,0.2,0.00,WSW,253,9.4,9.4,66,0.00,CLR,CLR,0.00,WeatherDisplay:10.37,2013-01-25 11:18:00,
2013-01-25 06:24:00,9.4,0.3,0.00,WSW,241,6.9,6.9,66,0.00,CLR,CLR,0.00,WeatherDisplay:10.37,2013-01-25 11:24:00,
2013-01-25 06:29:00,9.3,0.2,0.00,WSW,244,11.8,11.8,66,0.00,CLR,CLR,0.00,WeatherDisplay:10.37,2013-01-25 11:29:00,
2013-01-25 06:34:00,9.3,0.2,0.00,WSW,253,16.1,16.1,66,0.00,CLR,CLR,0.00,WeatherDisplay:10.37,2013-01-25 11:34:00,
2013-01-25 06:40:00,9.3,0.2,0.00,WNW,282,11.5,11.5,66,0.00,CLR,CLR,0.00,WeatherDisplay:10.37,2013-01-25 11:40:00,
2013-01-25 06:45:00,9.4,0.3,0.00,WNW,288,9.2,9.2,66,0.00,CLR,CLR,0.00,WeatherDisplay:10.37,2013-01-25 11:45:00,
2013-01-25 06:50:00,9.4,0.3,0.00,WSW,257,10.4,10.4,66,0.00,CLR,CLR,0.00,WeatherDisplay:10.37,2013-01-25 11:50:00,
2013-01-25 06:55:00,9.4,0.3,0.00,West,278,9.2,9.2,66,0.00,CLR,CLR,0.00,WeatherDisplay:10.37,2013-01-25 11:55:00,
2013-01-25 07:00:00,9.5,0.4,0.00,WSW,257,6.9,6.9,66,0.00,CLR,CLR,0.00,WeatherDisplay:10.37,2013-01-25 12:00:00,
2013-01-25 07:05:00,9.5,0.4,0.00,WSW,246,6.9,6.9,66,0.00,CLR,CLR,0.00,WeatherDisplay:10.37,2013-01-25 12:05:00,
2013-01-25 07:11:00,9.5,0.4,0.00,WSW,246,11.6,11.6,66,0.00,CLR,CLR,0.00,WeatherDisplay:10.37,2013-01-25 12:11:00,
2013-01-25 07:16:00,9.6,0.5,0.00,WNW,287,11.5,11.5,66,0.00,CLR,CLR,0.00,WeatherDisplay:10.37,2013-01-25 12:16:00,
2013-01-25 07:21:00,9.6,0.5,0.00,WSW,243,10.4,10.4,66,0.00,CLR,CLR,0.00,WeatherDisplay:10.37,2013-01-25 12:21:00,
2013-01-25 07:26:00,9.6,0.2,0.00,WSW,240,7.8,7.8,65,0.00,CLR,CLR,0.00,WeatherDisplay:10.37,2013-01-25 12:26:00,
2013-01-25 07:32:00,9.7,0.6,0.00,West,268,8.9,8.9,66,0.00,CLR,CLR,0.00,WeatherDisplay:10.37,2013-01-25 12:32:00,
2013-01-25 07:37:00,9.7,0.6,0.00,WSW,239,12.7,12.7,66,0.00,CLR,CLR,0.00,WeatherDisplay:10.37,2013-01-25 12:37:00,
2013-01-25 07:42:00,9.8,0.4,0.00,West,260,13.8,13.8,65,0.00,CLR,CLR,0.00,WeatherDisplay:10.37,2013-01-25 12:42:00,
2013-01-25 07:47:00,9.8,0.7,0.00,West,270,9.2,9.2,66,0.00,CLR,CLR,0.00,WeatherDisplay:10.37,2013-01-25 12:47:00,
2013-01-25 07:53:00,9.9,0.5,0.00,West,263,8.1,8.1,65,0.00,CLR,CLR,0.00,WeatherDisplay:10.37,2013-01-25 12:53:00,
2013-01-25 07:58:00,10.0,0.6,0.00,West,263,8.1,8.1,65,0.00,CLR,CLR,0.00,WeatherDisplay:10.37,2013-01-25 12:58:00,
2013-01-25 08:03:00,10.1,0.7,0.00,West,263,9.2,9.2,65,0.00,CLR,CLR,0.00,WeatherDisplay:10.37,2013-01-25 13:03:00,
2013-01-25 08:08:00,10.2,0.8,0.00,NNW,328,8.1,8.1,65,0.00,CLR,CLR,0.00,WeatherDisplay:10.37,2013-01-25 13:08:00,
2013-01-25 08:14:00,10.3,0.9,0.00,WNW,285,6.9,6.9,65,0.00,CLR,CLR,0.00,WeatherDisplay:10.37,2013-01-25 13:14:00,
2013-01-25 08:19:00,10.4,1.0,0.00,WNW,285,11.5,11.5,65,0.00,CLR,CLR,0.00,WeatherDisplay:10.37,2013-01-25 13:19:00,
2013-01-25 08:24:00,10.6,0.8,0.00,WNW,296,8.1,8.1,64,0.00,CLR,CLR,0.00,WeatherDisplay:10.37,2013-01-25 13:24:00,
2013-01-25 08:30:00,10.7,1.2,0.00,NW,305,8.1,8.1,65,0.00,CLR,CLR,0.00,WeatherDisplay:10.37,2013-01-25 13:30:00,
2013-01-25 08:35:00,10.8,1.0,0.00,West,272,13.8,13.8,64,0.00,CLR,CLR,0.00,WeatherDisplay:10.37,2013-01-25 13:35:00,
2013-01-25 08:40:00,11.0,1.2,0.00,WNW,296,12.7,12.7,64,0.00,CLR,CLR,0.00,WeatherDisplay:10.37,2013-01-25 13:40:00,
2013-01-25 08:45:00,11.1,1.3,0.00,WNW,295,10.4,10.4,64,0.00,CLR,CLR,0.00,WeatherDisplay:10.37,2013-01-25 13:45:00,
2013-01-25 08:50:00,11.2,1.4,0.00,West,278,11.5,11.5,64,0.00,CLR,CLR,0.00,WeatherDisplay:10.37,2013-01-25 13:50:00,
2013-01-25 08:55:00,11.4,1.6,0.00,WSW,250,12.7,12.7,64,0.00,CLR,CLR,0.00,WeatherDisplay:10.37,2013-01-25 13:55:00,
2013-01-25 09:01:00,11.5,1.7,0.00,WSW,242,6.0,16.0,64,0.00,CLR,CLR,0.00,WeatherDisplay:10.37,2013-01-25 14:01:00,
2013-01-25 09:06:00,11.6,1.4,0.00,SSW,198,13.8,13.8,63,0.00,CLR,CLR,0.00,WeatherDisplay:10.37,2013-01-25 14:06:00,
2013-01-25 09:11:00,11.8,1.6,0.00,WSW,246,6.9,6.9,63,0.00,CLR,CLR,0.00,WeatherDisplay:10.37,2013-01-25 14:11:00,
2013-01-25 09:16:00,11.9,1.7,0.00,West,263,9.7,9.7,63,0.00,CLR,CLR,0.00,WeatherDisplay:10.37,2013-01-25 14:16:00,
2013-01-25 09:21:00,12.1,1.9,0.00,NW,319,10.4,10.4,63,0.00,CLR,CLR,0.00,WeatherDisplay:10.37,2013-01-25 14:21:00,
2013-01-25 09:27:00,12.2,2.0,0.00,West,275,11.5,11.5,63,0.00,CLR,CLR,0.00,WeatherDisplay:10.37,2013-01-25 14:27:00,
2013-01-25 09:32:00,12.4,2.2,0.00,West,272,12.7,12.7,63,0.00,CLR,CLR,0.00,WeatherDisplay:10.37,2013-01-25 14:32:00,
2013-01-25 09:37:00,12.4,2.2,0.00,WNW,284,12.7,12.7,63,0.00,CLR,CLR,0.00,WeatherDisplay:10.37,2013-01-25 14:37:00,
2013-01-25 09:42:00,12.7,2.1,0.00,SW,224,13.7,13.7,62,0.00,CLR,CLR,0.00,WeatherDisplay:10.37,2013-01-25 14:42:00,
2013-01-25 09:47:00,12.9,2.3,0.00,West,277,16.1,16.1,62,0.00,CLR,CLR,0.00,WeatherDisplay:10.37,2013-01-25 14:47:00,
2013-01-25 09:52:00,13.0,2.4,0.00,WSW,243,9.0,9.0,62,0.00,CLR,CLR,0.00,WeatherDisplay:10.37,2013-01-25 14:52:00,
2013-01-25 09:58:00,13.3,2.3,0.00,West,265,12.7,12.7,61,0.00,CLR,CLR,0.00,WeatherDisplay:10.37,2013-01-25 14:58:00,
2013-01-25 10:03:00,13.5,2.5,0.00,West,260,10.4,10.4,61,0.00,CLR,CLR,0.00,WeatherDisplay:10.37,2013-01-25 15:03:00,
2013-01-25 10:08:00,13.7,3.1,0.00,WSW,244,10.4,10.4,62,0.00,CLR,CLR,0.00,WeatherDisplay:10.37,2013-01-25 15:08:00,
2013-01-25 10:13:00,13.9,2.9,0.00,WSW,248,13.2,13.2,61,0.00,CLR,CLR,0.00,WeatherDisplay:10.37,2013-01-25 15:13:00,
2013-01-25 10:18:00,14.2,2.8,0.00,WNW,289,9.2,9.2,60,0.00,CLR,CLR,0.00,WeatherDisplay:10.37,2013-01-25 15:18:00,
2013-01-25 10:24:00,14.3,2.9,0.00,NNW,337,9.2,9.2,60,0.00,CLR,CLR,0.00,WeatherDisplay:10.37,2013-01-25 15:24:00,
2013-01-25 10:29:00,14.6,3.2,0.00,West,267,4.6,4.6,60,0.00,CLR,CLR,0.00,WeatherDisplay:10.37,2013-01-25 15:29:00,
2013-01-25 10:34:00,14.7,3.3,0.00,West,263,7.7,7.7,60,0.00,CLR,CLR,0.00,WeatherDisplay:10.37,2013-01-25 15:34:00,
2013-01-25 10:40:00,15.0,3.2,0.00,West,264,11.5,11.5,59,0.00,CLR,CLR,0.00,WeatherDisplay:10.37,2013-01-25 15:40:00,
2013-01-25 10:45:00,15.2,3.4,0.00,WNW,295,12.7,12.7,59,0.00,CLR,CLR,0.00,WeatherDisplay:10.37,2013-01-25 15:45:00,
2013-01-25 10:50:00,15.5,3.7,0.00,SSW,209,10.8,10.8,59,0.00,CLR,CLR,0.00,WeatherDisplay:10.37,2013-01-25 15:50:00,
2013-01-25 10:55:00,15.7,3.9,0.00,SSE,154,8.1,8.1,59,0.00,CLR,CLR,0.00,WeatherDisplay:10.37,2013-01-25 15:55:00,
2013-01-25 11:01:00,15.8,4.0,0.00,West,259,6.0,13.0,59,0.00,CLR,CLR,0.00,WeatherDisplay:10.37,2013-01-25 16:01:00,
2013-01-25 11:06:00,16.0,4.2,0.00,West,278,9.2,9.2,59,0.00,CLR,CLR,0.00,WeatherDisplay:10.37,2013-01-25 16:06:00,
2013-01-25 11:11:00,16.3,4.1,0.00,WSW,250,13.7,13.7,58,0.00,CLR,CLR,0.00,WeatherDisplay:10.37,2013-01-25 16:11:00,
2013-01-25 11:17:00,16.6,4.4,0.00,WNW,298,9.2,9.2,58,0.00,CLR,CLR,0.00,WeatherDisplay:10.37,2013-01-25 16:17:00,
2013-01-25 11:22:00,16.7,4.5,0.00,WNW,294,8.1,8.1,58,0.00,CLR,CLR,0.00,WeatherDisplay:10.37,2013-01-25 16:22:00,
2013-01-25 11:27:00,17.0,4.4,0.00,NW,311,10.4,10.4,57,0.00,CLR,CLR,0.00,WeatherDisplay:10.37,2013-01-25 16:27:00,
2013-01-25 11:32:00,17.1,4.5,0.00,West,270,13.8,13.8,57,0.00,CLR,CLR,0.00,WeatherDisplay:10.37,2013-01-25 16:32:00,
2013-01-25 11:37:00,17.3,4.7,0.00,WSW,248,9.9,9.9,57,0.00,CLR,CLR,0.00,WeatherDisplay:10.37,2013-01-25 16:37:00,
2013-01-25 11:42:00,17.5,4.5,0.00,West,275,12.7,12.7,56,0.00,CLR,CLR,0.00,WeatherDisplay:10.37,2013-01-25 16:42:00,
2013-01-25 11:47:00,17.8,4.3,0.00,SW,229,11.5,11.5,55,0.00,CLR,CLR,0.00,WeatherDisplay:10.37,2013-01-25 16:47:00,
2013-01-25 11:53:00,18.1,4.6,0.00,WSW,256,10.4,10.4,55,0.00,CLR,CLR,0.00,WeatherDisplay:10.37,2013-01-25 16:53:00,
2013-01-25 11:58:00,18.2,4.7,0.00,WNW,295,8.6,8.6,55,0.00,CLR,CLR,0.00,WeatherDisplay:10.37,2013-01-25 16:58:00,
2013-01-25 12:03:00,18.4,4.9,0.00,WSW,253,11.5,11.5,55,0.00,CLR,CLR,0.00,WeatherDisplay:10.37,2013-01-25 17:03:00,
2013-01-25 12:09:00,18.6,5.1,0.00,West,261,10.4,10.4,55,0.00,CLR,CLR,0.00,WeatherDisplay:10.37,2013-01-25 17:09:00,
2013-01-25 12:14:00,18.8,5.3,0.00,WNW,298,10.4,10.4,55,0.00,CLR,CLR,0.00,WeatherDisplay:10.37,2013-01-25 17:14:00,
2013-01-25 12:19:00,19.0,5.1,0.00,West,270,9.3,9.3,54,0.00,CLR,CLR,0.00,WeatherDisplay:10.37,2013-01-25 17:19:00,
2013-01-25 12:24:00,19.1,5.2,0.00,WNW,285,6.9,6.9,54,0.00,CLR,CLR,0.00,WeatherDisplay:10.37,2013-01-25 17:24:00,
2013-01-25 12:29:00,19.2,5.3,0.00,SW,229,12.7,12.7,54,0.00,CLR,CLR,0.00,WeatherDisplay:10.37,2013-01-25 17:29:00,
2013-01-25 12:35:00,19.3,5.7,0.00,SW,222,11.5,11.5,55,0.00,CLR,CLR,0.00,WeatherDisplay:10.37,2013-01-25 17:35:00,
2013-01-25 12:40:00,19.3,5.7,0.00,SW,236,9.2,9.2,55,0.00,CLR,CLR,0.00,WeatherDisplay:10.37,2013-01-25 17:40:00,
2013-01-25 12:46:00,19.4,5.8,0.00,WNW,285,10.4,10.4,55,0.00,CLR,CLR,0.00,WeatherDisplay:10.37,2013-01-25 17:46:00,
2013-01-25 12:51:00,19.5,6.3,0.00,WSW,251,13.8,13.8,56,0.00,CLR,CLR,0.00,WeatherDisplay:10.37,2013-01-25 17:51:00,
2013-01-25 12:56:00,19.5,6.3,0.00,WSW,248,14.0,14.0,56,0.00,CLR,CLR,0.00,WeatherDisplay:10.37,2013-01-25 17:56:00,
2013-01-25 13:01:00,19.5,5.9,0.00,SSW,193,13.8,13.8,55,0.00,CLR,CLR,0.00,WeatherDisplay:10.37,2013-01-25 18:01:00,
2013-01-25 13:07:00,19.4,5.8,0.00,WSW,240,9.2,9.2,55,0.00,CLR,CLR,0.00,WeatherDisplay:10.37,2013-01-25 18:07:00,
2013-01-25 13:12:00,19.5,5.9,0.00,West,275,8.1,8.1,55,0.00,CLR,CLR,0.00,WeatherDisplay:10.37,2013-01-25 18:12:00,
2013-01-25 13:17:00,19.5,5.9,0.00,West,268,6.9,6.9,55,0.00,CLR,CLR,0.00,WeatherDisplay:10.37,2013-01-25 18:17:00,
2013-01-25 13:22:00,19.8,6.6,0.00,NW,318,9.2,9.2,56,0.00,CLR,CLR,0.00,WeatherDisplay:10.37,2013-01-25 18:22:00,
2013-01-25 13:27:00,19.8,6.6,0.00,West,268,9.2,9.2,56,0.00,CLR,CLR,0.00,WeatherDisplay:10.37,2013-01-25 18:27:00,
2013-01-25 13:33:00,19.9,6.3,0.00,NW,309,5.8,5.8,55,0.00,CLR,CLR,0.00,WeatherDisplay:10.37,2013-01-25 18:33:00,
2013-01-25 13:38:00,20.0,6.4,0.00,WNW,299,9.2,9.2,55,0.00,CLR,CLR,0.00,WeatherDisplay:10.37,2013-01-25 18:38:00,
2013-01-25 13:43:00,20.1,6.5,0.00,West,270,10.4,10.4,55,0.00,CLR,CLR,0.00,WeatherDisplay:10.37,2013-01-25 18:43:00,
2013-01-25 13:48:00,20.1,6.5,0.00,WSW,251,9.2,9.2,55,0.00,CLR,CLR,0.00,WeatherDisplay:10.37,2013-01-25 18:48:00,
2013-01-25 13:53:00,20.3,6.7,0.00,WNW,284,6.9,6.9,55,0.00,CLR,CLR,0.00,WeatherDisplay:10.37,2013-01-25 18:53:00,
2013-01-25 13:58:00,20.4,6.8,0.00,WNW,285,11.5,11.5,55,0.00,CLR,CLR,0.00,WeatherDisplay:10.37,2013-01-25 18:58:00,
2013-01-25 14:04:00,20.6,7.0,0.00,WSW,251,5.8,5.8,55,0.00,CLR,CLR,0.00,WeatherDisplay:10.37,2013-01-25 19:04:00,
2013-01-25 14:09:00,20.8,6.7,0.00,SSW,199,5.8,5.8,54,0.00,CLR,CLR,0.00,WeatherDisplay:10.37,2013-01-25 19:09:00,
2013-01-25 14:14:00,20.8,7.2,0.00,South,188,8.1,8.1,55,0.00,CLR,CLR,0.00,WeatherDisplay:10.37,2013-01-25 19:14:00,
2013-01-25 14:19:00,20.9,7.2,0.00,WSW,251,4.6,4.6,55,0.00,CLR,CLR,0.00,WeatherDisplay:10.37,2013-01-25 19:19:00,
2013-01-25 14:25:00,21.0,7.3,0.00,SW,216,9.3,9.3,55,0.00,CLR,CLR,0.00,WeatherDisplay:10.37,2013-01-25 19:25:00,
2013-01-25 14:30:00,21.1,7.4,0.00,WSW,243,9.2,9.2,55,0.00,CLR,CLR,0.00,WeatherDisplay:10.37,2013-01-25 19:30:00,
2013-01-25 14:35:00,21.2,7.1,0.00,West,275,6.9,6.9,54,0.00,CLR,CLR,0.00,WeatherDisplay:10.37,2013-01-25 19:35:00,
2013-01-25 14:40:00,21.3,7.6,0.00,WSW,247,5.8,5.8,55,0.00,CLR,CLR,0.00,WeatherDisplay:10.37,2013-01-25 19:40:00,
2013-01-25 14:45:00,21.5,7.4,0.00,SW,222,9.2,9.2,54,0.00,CLR,CLR,0.00,WeatherDisplay:10.37,2013-01-25 19:45:00,
2013-01-25 14:50:00,21.5,7.4,0.00,WSW,241,6.8,6.8,54,0.00,CLR,CLR,0.00,WeatherDisplay:10.37,2013-01-25 19:50:00,
2013-01-25 14:55:00,21.7,7.6,0.00,NNW,340,5.8,5.8,54,0.00,CLR,CLR,0.00,WeatherDisplay:10.37,2013-01-25 19:55:00,
2013-01-25 15:00:00,21.7,7.6,0.00,West,263,6.0,10.0,54,0.00,CLR,CLR,0.00,WeatherDisplay:10.37,2013-01-25 20:00:00,
2013-01-25 15:06:00,21.8,7.7,0.00,WSW,254,6.9,6.9,54,0.00,CLR,CLR,0.00,WeatherDisplay:10.37,2013-01-25 20:06:00,
2013-01-25 15:11:00,21.9,7.8,0.00,WSW,243,9.2,9.2,54,0.00,CLR,CLR,0.00,WeatherDisplay:10.37,2013-01-25 20:11:00,
2013-01-25 15:16:00,21.9,7.8,0.00,West,271,6.9,6.9,54,0.00,CLR,CLR,0.00,WeatherDisplay:10.37,2013-01-25 20:16:00,
2013-01-25 15:21:00,22.0,7.9,0.00,WNW,282,9.2,9.2,54,0.00,CLR,CLR,0.00,WeatherDisplay:10.37,2013-01-25 20:21:00,
2013-01-25 15:27:00,22.0,7.9,0.00,South,181,5.8,5.8,54,0.00,CLR,CLR,0.00,WeatherDisplay:10.37,2013-01-25 20:27:00,
2013-01-25 15:32:00,22.1,8.0,0.00,ENE,75,11.5,11.5,54,0.00,CLR,CLR,0.00,WeatherDisplay:10.37,2013-01-25 20:32:00,
2013-01-25 15:37:00,22.1,8.4,0.00,East,90,4.6,4.6,55,0.00,CLR,CLR,0.00,WeatherDisplay:10.37,2013-01-25 20:37:00,
2013-01-25 15:43:00,22.1,8.0,0.00,WSW,256,9.2,9.2,54,0.00,CLR,CLR,0.00,WeatherDisplay:10.37,2013-01-25 20:43:00,
2013-01-25 15:48:00,22.1,8.4,0.00,SW,234,6.9,6.9,55,0.00,CLR,CLR,0.00,WeatherDisplay:10.37,2013-01-25 20:48:00,
2013-01-25 15:53:00,22.1,8.4,0.00,South,188,6.9,0.0,55,0.00,CLR,CLR,0.00,WeatherDisplay:10.37,2013-01-25 20:53:00,
2013-01-25 15:58:00,22.0,7.9,0.00,WSW,247,10.4,10.4,54,0.00,CLR,CLR,0.00,WeatherDisplay:10.37,2013-01-25 20:58:00,
2013-01-25 16:04:00,22.0,8.3,0.00,South,185,6.9,6.9,55,0.00,CLR,CLR,0.00,WeatherDisplay:10.37,2013-01-25 21:04:00,
2013-01-25 16:09:00,22.0,7.9,0.00,West,271,4.6,4.6,54,0.00,CLR,CLR,0.00,WeatherDisplay:10.37,2013-01-25 21:09:00,
2013-01-25 16:14:00,22.0,7.9,0.00,WSW,254,4.6,4.6,54,0.00,CLR,CLR,0.00,WeatherDisplay:10.37,2013-01-25 21:14:00,
2013-01-25 16:19:00,22.0,7.9,0.00,West,261,4.6,4.6,54,0.00,CLR,CLR,0.00,WeatherDisplay:10.37,2013-01-25 21:19:00,
2013-01-25 16:24:00,22.0,8.3,0.00,WNW,292,5.8,5.8,55,0.00,CLR,CLR,0.00,WeatherDisplay:10.37,2013-01-25 21:24:00,
2013-01-25 16:29:00,22.0,8.3,0.00,West,267,5.8,5.8,55,0.00,CLR,CLR,0.00,WeatherDisplay:10.37,2013-01-25 21:29:00,
2013-01-25 16:34:00,22.0,8.3,0.00,WSW,253,8.1,8.1,55,0.00,CLR,CLR,0.00,WeatherDisplay:10.37,2013-01-25 21:34:00,
2013-01-25 16:40:00,21.9,8.2,0.00,West,264,5.8,5.8,55,0.00,CLR,CLR,0.00,WeatherDisplay:10.37,2013-01-25 21:40:00,
2013-01-25 16:45:00,21.9,8.2,0.00,West,261,5.0,8.0,55,0.00,CLR,CLR,0.00,WeatherDisplay:10.37,2013-01-25 21:45:00,
2013-01-25 16:50:00,21.9,8.2,0.00,SW,236,5.8,5.8,55,0.00,CLR,CLR,0.00,WeatherDisplay:10.37,2013-01-25 21:50:00,
2013-01-25 16:55:00,21.8,8.5,0.00,WSW,254,4.6,4.6,56,0.00,CLR,CLR,0.00,WeatherDisplay:10.37,2013-01-25 21:55:00,
2013-01-25 17:00:00,21.9,8.2,0.00,SW,233,6.9,6.9,55,0.00,CLR,CLR,0.00,WeatherDisplay:10.37,2013-01-25 22:00:00,
2013-01-25 17:06:00,21.8,8.5,0.00,WSW,250,5.8,5.8,56,0.00,CLR,CLR,0.00,WeatherDisplay:10.37,2013-01-25 22:06:00,
2013-01-25 17:11:00,21.7,8.4,0.00,WSW,254,5.8,5.8,56,0.00,CLR,CLR,0.00,WeatherDisplay:10.37,2013-01-25 22:11:00,
2013-01-25 17:16:00,21.8,8.5,0.00,West,261,8.1,8.1,56,0.00,CLR,CLR,0.00,WeatherDisplay:10.37,2013-01-25 22:16:00,
2013-01-25 17:21:00,21.8,8.5,0.00,NW,309,3.5,3.5,56,0.00,CLR,CLR,0.00,WeatherDisplay:10.37,2013-01-25 22:21:00,
2013-01-25 17:27:00,21.8,8.5,0.00,WSW,257,9.2,9.2,56,0.00,CLR,CLR,0.00,WeatherDisplay:10.37,2013-01-25 22:27:00,
2013-01-25 17:32:00,21.7,8.4,0.00,WSW,254,5.8,5.8,56,0.00,CLR,CLR,0.00,WeatherDisplay:10.37,2013-01-25 22:32:00,
2013-01-25 17:37:00,21.7,8.8,0.00,WSW,257,6.9,6.9,57,0.00,CLR,CLR,0.00,WeatherDisplay:10.37,2013-01-25 22:37:00,
2013-01-25 17:43:00,21.7,8.8,0.00,West,264,4.6,4.6,57,0.00,CLR,CLR,0.00,WeatherDisplay:10.37,2013-01-25 22:43:00,
2013-01-25 17:48:00,21.6,8.7,0.00,WSW,250,5.0,5.0,57,0.00,CLR,CLR,0.00,WeatherDisplay:10.37,2013-01-25 22:48:00,
2013-01-25 17:53:00,21.6,8.7,0.00,WNW,288,5.8,5.8,57,0.00,CLR,CLR,0.00,WeatherDisplay:10.37,2013-01-25 22:53:00,
2013-01-25 17:58:00,21.5,8.6,0.00,West,263,5.8,5.8,57,0.00,CLR,CLR,0.00,WeatherDisplay:10.37,2013-01-25 22:58:00,
2013-01-25 18:03:00,21.5,9.0,0.00,WSW,243,5.3,5.3,58,0.00,CLR,CLR,0.00,WeatherDisplay:10.37,2013-01-25 23:03:00,
2013-01-25 18:08:00,21.5,9.0,0.00,SW,226,3.5,3.5,58,0.00,CLR,CLR,0.00,WeatherDisplay:10.37,2013-01-25 23:08:00,
2013-01-25 18:13:00,21.5,9.0,0.00,WNW,282,5.8,5.8,58,0.00,CLR,CLR,0.00,WeatherDisplay:10.37,2013-01-25 23:13:00,
2013-01-25 18:19:00,21.5,9.0,0.00,West,270,3.5,3.5,58,0.00,CLR,CLR,0.00,WeatherDisplay:10.37,2013-01-25 23:19:00,
2013-01-25 18:24:00,21.5,9.0,0.00,West,267,8.1,8.1,58,0.00,CLR,CLR,0.00,WeatherDisplay:10.37,2013-01-25 23:24:00,
2013-01-25 18:29:00,21.4,8.9,0.00,WNW,285,6.9,6.9,58,0.00,CLR,CLR,0.00,WeatherDisplay:10.37,2013-01-25 23:29:00,
2013-01-25 18:35:00,21.4,8.9,0.00,West,261,4.6,4.6,58,0.00,CLR,CLR,0.00,WeatherDisplay:10.37,2013-01-25 23:35:00,
2013-01-25 18:40:00,21.4,8.9,0.00,WSW,250,4.6,4.6,58,0.00,CLR,CLR,0.00,WeatherDisplay:10.37,2013-01-25 23:40:00,
2013-01-25 18:45:00,21.4,9.3,0.00,West,278,3.7,3.7,59,0.00,CLR,CLR,0.00,WeatherDisplay:10.37,2013-01-25 23:45:00,
2013-01-25 18:50:00,21.3,9.2,0.00,WSW,239,4.6,4.6,59,0.00,CLR,CLR,0.00,WeatherDisplay:10.37,2013-01-25 23:50:00,
2013-01-25 18:56:00,21.4,9.3,0.00,West,264,4.5,4.5,59,0.00,CLR,CLR,0.00,WeatherDisplay:10.37,2013-01-25 23:56:00,
2013-01-25 19:01:00,21.3,9.2,0.00,WNW,299,3.7,3.7,59,0.00,FEW,FEW,0.00,WeatherDisplay:10.37,2013-01-26 00:01:00,
2013-01-25 19:06:00,21.2,9.1,0.00,WSW,250,3.5,3.5,59,0.00,FEW,FEW,0.00,WeatherDisplay:10.37,2013-01-26 00:06:00,
2013-01-25 19:11:00,21.2,9.1,0.00,West,278,3.5,3.5,59,0.00,FEW,FEW,0.00,WeatherDisplay:10.37,2013-01-26 00:11:00,
2013-01-25 19:17:00,21.2,9.1,0.00,WSW,244,6.9,6.9,59,0.00,FEW,FEW,0.00,WeatherDisplay:10.37,2013-01-26 00:17:00,
2013-01-25 19:22:00,21.1,9.4,0.00,West,260,3.5,3.5,60,0.00,FEW,FEW,0.00,WeatherDisplay:10.37,2013-01-26 00:22:00,
2013-01-25 19:27:00,21.1,9.4,0.00,South,176,3.5,3.5,60,0.00,FEW,FEW,0.00,WeatherDisplay:10.37,2013-01-26 00:27:00,
2013-01-25 19:32:00,21.2,9.5,0.00,SW,227,3.5,3.5,60,0.00,FEW,FEW,0.00,WeatherDisplay:10.37,2013-01-26 00:32:00,
2013-01-25 19:37:00,21.2,9.5,0.00,West,267,2.3,2.3,60,0.00,FEW,FEW,0.00,WeatherDisplay:10.37,2013-01-26 00:37:00,
2013-01-25 19:42:00,21.2,9.5,0.00,West,267,0.0,0.0,60,0.00,FEW,FEW,0.00,WeatherDisplay:10.37,2013-01-26 00:42:00,
2013-01-25 19:47:00,21.2,9.5,0.00,West,267,0.0,0.0,60,0.00,FEW,FEW,0.00,WeatherDisplay:10.37,2013-01-26 00:47:00,
2013-01-25 19:52:00,21.1,9.7,0.00,NNE,31,0.0,0.0,61,0.00,FEW,FEW,0.00,WeatherDisplay:10.37,2013-01-26 00:52:00,
2013-01-25 19:58:00,21.2,9.5,0.00,NNE,31,0.0,0.0,60,0.00,FEW,FEW,0.00,WeatherDisplay:10.37,2013-01-26 00:58:00,
2013-01-25 20:03:00,21.2,9.5,0.00,SW,236,3.5,3.5,60,0.00,SCT,SCT,0.00,WeatherDisplay:10.37,2013-01-26 01:03:00,
2013-01-25 20:08:00,21.2,9.8,0.00,South,178,0.0,0.0,61,0.00,SCT,SCT,0.00,WeatherDisplay:10.37,2013-01-26 01:08:00,
2013-01-25 20:13:00,21.2,9.8,0.00,South,178,0.0,0.0,61,0.00,SCT,SCT,0.00,WeatherDisplay:10.37,2013-01-26 01:13:00,
2013-01-25 20:19:00,21.2,9.8,0.00,WSW,258,2.5,2.5,61,0.00,SCT,SCT,0.00,WeatherDisplay:10.37,2013-01-26 01:19:00,
2013-01-25 20:24:00,21.2,9.8,0.00,West,267,6.9,6.9,61,0.00,SCT,SCT,0.00,WeatherDisplay:10.37,2013-01-26 01:24:00,
2013-01-25 20:29:00,21.1,9.7,0.00,West,267,4.6,4.6,61,0.00,SCT,SCT,0.00,WeatherDisplay:10.37,2013-01-26 01:29:00,
2013-01-25 20:35:00,21.0,9.6,0.00,West,274,3.5,3.5,61,0.00,SCT,SCT,0.00,WeatherDisplay:10.37,2013-01-26 01:35:00,
2013-01-25 20:40:00,21.0,10.0,0.00,WNW,299,4.6,4.6,62,0.00,SCT,SCT,0.00,WeatherDisplay:10.37,2013-01-26 01:40:00,
2013-01-25 20:45:00,20.9,10.3,0.00,West,279,2.0,7.0,63,0.00,SCT,SCT,0.00,WeatherDisplay:10.37,2013-01-26 01:45:00,
2013-01-25 20:51:00,20.8,10.2,0.00,NW,312,4.6,4.6,63,0.00,SCT,SCT,0.00,WeatherDisplay:10.37,2013-01-26 01:51:00,
2013-01-25 20:56:00,20.9,11.0,0.00,WNW,301,3.5,3.5,65,0.00,SCT,SCT,0.00,WeatherDisplay:10.37,2013-01-26 01:56:00,
2013-01-25 21:01:00,20.8,11.2,0.00,NW,316,3.5,3.5,66,0.00,SCT,SCT,0.00,WeatherDisplay:10.37,2013-01-26 02:01:00,
2013-01-25 21:06:00,20.7,11.1,0.00,NW,313,3.5,3.5,66,0.00,SCT,SCT,0.00,WeatherDisplay:10.37,2013-01-26 02:06:00,
2013-01-25 21:12:00,20.6,11.0,0.00,NNE,14,2.3,2.3,66,0.00,SCT,SCT,0.00,WeatherDisplay:10.37,2013-01-26 02:12:00,
2013-01-25 21:17:00,20.5,11.3,0.00,North,6,2.3,2.3,67,0.00,SCT,SCT,0.00,WeatherDisplay:10.37,2013-01-26 02:17:00,
2013-01-25 21:22:00,20.5,11.6,0.00,NNE,20,3.5,3.5,68,0.00,SCT,SCT,0.00,WeatherDisplay:10.37,2013-01-26 02:22:00,
2013-01-25 21:27:00,20.5,11.6,0.00,NW,323,0.0,0.0,68,0.00,SCT,SCT,0.00,WeatherDisplay:10.37,2013-01-26 02:27:00,
2013-01-25 21:32:00,20.5,11.9,0.00,NW,323,0.0,0.0,69,0.00,SCT,SCT,0.00,WeatherDisplay:10.37,2013-01-26 02:32:00,
2013-01-25 21:37:00,20.5,11.9,0.00,NW,323,0.0,0.0,69,0.00,SCT,SCT,0.00,WeatherDisplay:10.37,2013-01-26 02:37:00,
2013-01-25 21:43:00,20.6,12.0,0.00,NW,323,0.0,0.0,69,0.00,SCT,SCT,0.00,WeatherDisplay:10.37,2013-01-26 02:43:00,
2013-01-25 21:48:00,20.6,12.0,0.00,NW,323,0.0,0.0,69,0.00,SCT,SCT,0.00,WeatherDisplay:10.37,2013-01-26 02:48:00,
2013-01-25 21:53:00,20.6,12.0,0.00,NW,306,0.0,0.0,69,0.00,SCT,SCT,0.00,WeatherDisplay:10.37,2013-01-26 02:53:00,
2013-01-25 21:58:00,20.6,12.0,0.00,NW,306,0.0,0.0,69,0.00,SCT,SCT,0.00,WeatherDisplay:10.37,2013-01-26 02:58:00,
2013-01-25 22:04:00,20.5,12.3,0.00,WNW,284,1.2,1.2,70,0.00,OVC,OVC,0.00,WeatherDisplay:10.37,2013-01-26 03:04:00,
2013-01-25 22:09:00,20.4,12.5,0.00,WNW,284,0.0,0.0,71,0.00,OVC,OVC,0.00,WeatherDisplay:10.37,2013-01-26 03:09:00,
2013-01-25 22:14:00,20.4,12.8,0.00,WNW,284,0.0,0.0,72,0.00,OVC,OVC,0.00,WeatherDisplay:10.37,2013-01-26 03:14:00,
2013-01-25 22:19:00,20.3,13.0,0.00,WNW,284,0.0,0.0,73,0.00,OVC,OVC,0.00,WeatherDisplay:10.37,2013-01-26 03:19:00,
2013-01-25 22:24:00,20.3,13.3,0.00,WSW,244,0.0,0.0,74,0.00,OVC,OVC,0.00,WeatherDisplay:10.37,2013-01-26 03:24:00,
2013-01-25 22:30:00,20.2,13.5,0.00,WSW,256,3.5,3.5,75,0.00,OVC,OVC,0.00,WeatherDisplay:10.37,2013-01-26 03:30:00,
2013-01-25 22:35:00,20.0,13.3,0.00,SW,234,1.2,0.0,75,0.00,OVC,OVC,0.00,WeatherDisplay:10.37,2013-01-26 03:35:00,
2013-01-25 22:40:00,19.9,13.6,0.00,SW,234,0.0,0.0,76,0.00,OVC,OVC,0.00,WeatherDisplay:10.37,2013-01-26 03:40:00,
2013-01-25 22:45:00,19.8,13.8,0.00,SW,234,0.0,0.0,77,0.00,OVC,OVC,0.00,WeatherDisplay:10.37,2013-01-26 03:45:00,
2013-01-25 22:51:00,19.8,14.0,0.00,West,263,2.3,2.3,78,0.00,OVC,OVC,0.00,WeatherDisplay:10.37,2013-01-26 03:51:00,
2013-01-25 22:56:00,19.8,14.0,0.00,West,261,2.3,2.3,78,0.00,OVC,OVC,0.00,WeatherDisplay:10.37,2013-01-26 03:56:00,
2013-01-25 23:01:00,19.7,14.2,0.00,WSW,256,3.4,3.4,79,0.00,OVC,OVC,0.00,WeatherDisplay:10.37,2013-01-26 04:01:00,
2013-01-25 23:07:00,19.6,14.1,0.00,WSW,256,3.5,3.5,79,0.00,OVC,OVC,0.00,WeatherDisplay:10.37,2013-01-26 04:07:00,
2013-01-25 23:12:00,19.5,14.3,0.00,NW,304,1.2,1.2,80,0.00,OVC,OVC,0.00,WeatherDisplay:10.37,2013-01-26 04:12:00,
2013-01-25 23:17:00,19.6,14.4,0.00,WNW,284,0.0,0.0,80,0.00,OVC,OVC,0.00,WeatherDisplay:10.37,2013-01-26 04:17:00,
2013-01-25 23:22:00,19.6,14.4,0.00,WNW,284,0.0,0.0,80,0.00,OVC,OVC,0.00,WeatherDisplay:10.37,2013-01-26 04:22:00,
2013-01-25 23:28:00,19.5,14.3,0.00,WNW,284,0.0,0.0,80,0.00,OVC,OVC,0.00,WeatherDisplay:10.37,2013-01-26 04:28:00,
2013-01-25 23:33:00,19.7,14.8,0.00,WNW,284,0.0,0.0,81,0.00,OVC,OVC,0.00,WeatherDisplay:10.37,2013-01-26 04:33:00,
2013-01-25 23:38:00,19.7,14.8,0.00,WNW,284,0.0,0.0,81,0.00,OVC,OVC,0.00,WeatherDisplay:10.37,2013-01-26 04:38:00,
2013-01-25 23:43:00,19.6,14.7,0.00,WNW,284,0.0,0.0,81,0.00,OVC,OVC,0.00,WeatherDisplay:10.37,2013-01-26 04:43:00,
2013-01-25 23:48:00,19.6,14.7,0.00,WNW,284,0.0,0.0,81,0.00,OVC,OVC,0.00,WeatherDisplay:10.37,2013-01-26 04:48:00,
2013-01-25 23:54:00,19.5,14.6,0.00,WNW,284,0.0,0.0,81,0.00,OVC,OVC,0.00,WeatherDisplay:10.37,2013-01-26 04:54:00,
2013-01-25 23:59:00,19.5,14.6,0.00,WSW,239,0.0,0.0,81,0.00,OVC,OVC,0.00,WeatherDisplay:10.37,2013-01-26 04:59:00,